GOES 16

Last updated on Nov. 14, 2019, 4:21 a.m. UTC

1 41866U 16071A   19317.46389528 -.00000234  00000-0  00000+0 0  9995
2 41866   0.0036   1.6570 0000722 268.9359 233.5329  1.00271483 10967
UTC
Height (km)
Latitude
Longitude
Inclination
Orbital Period
UTC large
Height (km)
Speed (km/s)
/
Latitude / Longitude
Inclination (degrees)
Orbital Period (minutes)
Azimuth
Elevation
Range (km)
Doppler Factor
iOS Compass Heading
iOS Angle

Next 30 passes for location: Hong Kong

Rise time Rise Azimuth (degrees) Set time Set Azimuth (degrees) Duration Max altitude (degrees)

No matching passes for this satellites